Terminal Aerodrome Forecast
Issued by NWS

Home | Current Version | Previous Version | Text Only | Print | Product List | Glossary Off
Versions: 1 2 3 4 5 6 7 8 9 10 11 12 13 14 15 16 17 18 19 20 21 22
000 FTUS41 KBOX 231740 AAF TAFBAF TAF AMD KBAF 231740Z 2318/2418 18004KT P6SM SCT030 BKN060 FM232300 16006KT P6SM SCT020 BKN035 FM240200 16009KT 6SM BR VCSH OVC025 FM240400 16010KT P6SM VCSH OVC020 FM241000 16011G18KT 5SM -SHRA BR OVC020 FM241500 16012G19KT 2SM -SHRA BR OVC020 WS020/18040KT FM241700 16013G21KT 3SM -SHRA BR OVC020=

USA.gov is the U.S. government's official web portal to all federal, state and local government web resources and services.